Latest Coastal Weather Observations for Willis Island

IDQ60701

Issued at 5:35 pm EST Wednesday 17 September 2014 (issued every 10 minutes, with the page automatically refreshed every 10 minutes)

About coastal observations | Map of coastal stations | Coastal observations for QLD | Marine services | Other Formats
Station Details ID: 200283 Name: WILLIS ISLAND Lat: -16.29 Lon: 149.97 Height: 9.29 m
Data from the previous 72 hours. | See also: Recent months at Willis Island
Date/Time
EST
Temp

°C
Wind Pressure Rain
since 9am
mm
Weather Cloud Vis
km
Sea
Height
m
Swell
Dir
 
Speed
knots
Gust
knots
hPa Trend Height
m
Period
s
Dir
17/05:30pm 24.2 SE 13 15 1014.7 - 0.0 - - - - - - -
17/05:00pm 24.8 SE 12 15 1014.5 - 0.0 - - - - - - -
17/04:30pm 25.2 SE 12 15 1014.3 - 0.0 - - - - - - -
17/04:00pm 25.4 SE 12 14 1014.0 - 0.0 - - - - - - -
17/03:30pm 26.0 SE 12 15 1013.9 - 0.0 - - - - - - -
17/03:00pm 26.2 SE 11 13 1013.8 R 0.0 Fine Mostly clear 30 1 1.0 8 E
17/02:30pm 26.2 ESE 11 14 1013.8 - 0.0 - - - - - - -
17/02:00pm 26.4 SE 12 15 1013.9 - 0.0 - - - - - - -
17/01:30pm 26.4 ESE 14 16 1014.1 - 0.0 - - - - - - -
17/01:00pm 26.6 SE 15 17 1014.3 - 0.0 - - - - - - -
17/12:30pm 26.5 SE 14 17 1014.6 - 0.0 - - - - - - -
17/12:00pm 26.8 SE 15 17 1015.1 S 0.0 Fine Partly cloudy 30 1 1.0 8 E
17/11:30am 26.9 SE 15 17 1015.3 - 0.0 - - - - - - -
17/11:00am 26.5 ESE 15 17 1015.6 - 0.0 - - - - - - -
17/10:30am 26.6 SE 14 17 1015.9 - 0.0 - - - - - - -
17/10:00am 25.9 ESE 14 16 1016.2 - 0.0 - - - - - - -
17/09:30am 25.6 ESE 14 17 1016.4 - 0.0 - - - - - - -
17/09:00am 25.4 SE 14 16 1016.4 F 0.0 Fine Partly cloudy 30 1 1.0 8 E
17/08:30am 25.7 SE 15 17 1016.3 - 0.0 - - - - - - -
17/08:00am 24.9 SE 16 19 1016.0 - 0.0 - - - - - - -
17/07:30am 24.6 SE 16 17 1015.6 - 0.0 - - - - - - -
17/07:00am 23.8 SE 15 18 1015.4 - 0.0 - - - - - - -
17/06:30am 23.7 SE 15 16 1015.0 - 0.0 - - - - - - -
17/06:00am 23.3 SE 14 17 1014.8 R 0.0 Fine Partly cloudy 30 1 1.0 8 E
17/05:30am 23.4 SSE 12 14 1014.3 - 0.0 - - - - - - -
17/05:00am 23.1 ESE 13 16 1014.1 - 0.0 - - - - - - -
17/04:30am 23.3 ESE 13 17 1013.9 - 0.0 - - - - - - -
17/04:00am 23.2 SE 13 16 1013.7 - 0.0 - - - - - - -
17/03:30am 23.1 SE 13 15 1013.7 - 0.0 - - - - - - -
17/03:00am 23.2 SE 14 17 1013.8 - 0.0 - - - - - - -
17/02:30am 23.4 ESE 14 17 1014.0 - 0.0 - - - - - - -
17/02:00am 23.3 ESE 13 16 1014.2 - 0.0 - - - - - - -
17/01:30am 23.4 ESE 14 17 1014.4 - 0.0 - - - - - - -
17/01:00am 23.4 SE 15 17 1014.7 - 0.0 - - - - - - -
17/12:30am 23.4 SE 14 17 1014.9 - 0.0 - - - - - - -
17/12:00am 23.5 ESE 14 17 1015.1 - 0.0 - - - - - - -
 
Date/Time
EST
Temp

°C
Wind Pressure Rain
since 9am
mm
Weather Cloud Vis
km
Sea
Height
m
Swell
Dir
 
Speed
knots
Gust
knots
hPa Trend Height
m
Period
s
Dir
16/11:30pm 23.5 ESE 14 18 1015.4 - 0.0 - - - - - - -
16/11:00pm 23.6 ESE 14 17 1015.6 - 0.0 - - - - - - -
16/10:30pm 23.6 ESE 14 16 1015.6 - 0.0 - - - - - - -
16/10:00pm 23.7 SE 15 17 1015.4 - 0.0 - - - - - - -
16/09:30pm 23.7 SE 14 17 1015.4 - 0.0 - - - - - - -
16/09:00pm 23.7 SE 15 18 1015.3 F 0.0 Fine Mostly clear 30 1 - - -
16/08:30pm 23.7 SE 15 17 1015.1 - 0.0 - - - - - - -
16/08:00pm 23.7 SE 15 17 1014.9 - 0.0 - - - - - - -
16/07:30pm 23.8 SE 15 17 1014.6 - 0.0 - - - - - - -
16/07:00pm 23.9 SE 15 17 1014.5 - 0.0 - - - - - - -
16/06:30pm 23.9 ESE 15 17 1014.2 - 0.0 - - - - - - -
16/06:00pm 24.0 ESE 15 17 1013.9 F 0.0 Fine Mostly clear 30 1 1.5 9 E
16/05:30pm 24.1 SE 15 17 1013.6 - 0.0 - - - - - - -
16/05:00pm 24.6 SE 15 19 1013.6 - 0.0 - - - - - - -
16/04:30pm 25.0 SE 15 18 1013.4 - 0.0 - - - - - - -
16/04:00pm 25.3 SE 15 17 1013.3 - 0.0 - - - - - - -
16/03:30pm 25.6 SE 14 17 1013.2 - 0.0 - - - - - - -
16/03:00pm 25.8 SSE 15 18 1013.2 R 0.0 Fine Mostly clear 30 1 1.5 9 E
16/02:30pm 26.3 SSE 14 16 1013.5 - 0.0 - - - - - - -
16/02:00pm 26.3 SSE 14 17 1013.8 - 0.0 - - - - - - -
16/01:30pm 26.5 SSE 14 16 1014.0 - 0.0 - - - - - - -
16/01:00pm 26.8 SSE 14 17 1014.2 - 0.0 - - - - - - -
16/12:30pm 26.6 SE 14 16 1014.4 - 0.0 - - - - - - -
16/12:00pm 25.7 SE 15 17 1014.6 R 0.0 Fine Mostly clear 30 1 1.0 8 SE
16/11:30am 26.6 SE 15 18 1014.9 - 0.0 - - - - - - -
16/11:00am 26.9 SE 16 18 1015.2 - 0.0 - - - - - - -
16/10:30am 26.7 ESE 15 18 1015.2 - 0.0 - - - - - - -
16/10:00am 26.3 SE 16 18 1015.5 - 0.0 - - - - - - -
16/09:30am 26.3 SE 15 18 1015.8 - 0.0 - - - - - - -
16/09:00am 25.5 SE 17 20 1015.8 F 0.0 Fine Mostly clear 30 2 1.5 8 SE
16/08:30am 25.3 SE 16 19 1015.8 - 0.0 - - - - - - -
16/08:00am 24.9 SE 16 19 1015.5 - 0.0 - - - - - - -
16/07:30am 24.6 SE 17 20 1015.4 - 0.0 - - - - - - -
16/07:00am 24.2 SE 15 18 1014.9 - 0.0 - - - - - - -
16/06:30am 23.6 SE 15 18 1014.8 - 0.0 - - - - - - -
16/06:00am 23.5 SE 15 17 1014.5 R 0.0 Fine Partly cloudy 30 2 1.0 9 SE
16/05:30am 23.3 SE 15 19 1014.1 - 0.0 - - - - - - -
16/05:00am 23.5 SE 15 17 1013.9 - 0.0 - - - - - - -
16/04:30am 23.5 SSE 16 19 1013.7 - 0.0 - - - - - - -
16/04:00am 23.4 SE 15 17 1013.5 - 0.0 - - - - - - -
16/03:30am 23.5 SSE 15 17 1013.4 - 0.0 - - - - - - -
16/03:00am 23.6 SE 15 18 1013.3 - 0.0 - - - - - - -
16/02:30am 23.5 SE 15 17 1013.6 - 0.0 - - - - - - -
16/02:00am 23.7 SE 16 19 1013.7 - 0.0 - - - - - - -
16/01:30am 23.7 SE 16 18 1014.0 - 0.0 - - - - - - -
16/01:00am 23.7 ESE 16 19 1014.2 - 0.0 - - - - - - -
16/12:30am 23.7 ESE 16 18 1014.5 - 0.0 - - - - - - -
16/12:00am 23.7 ESE 16 19 1014.6 - 0.0 - - - - - - -
 
Date/Time
EST
Temp

°C
Wind Pressure Rain
since 9am
mm
Weather Cloud Vis
km
Sea
Height
m
Swell
Dir
 
Speed
knots
Gust
knots
hPa Trend Height
m
Period
s
Dir
15/11:30pm 23.7 SE 16 20 1014.7 - 0.0 - - - - - - -
15/11:00pm 23.8 SE 18 20 1014.8 - 0.0 - - - - - - -
15/10:30pm 24.0 ESE 17 20 1014.8 - 0.0 - - - - - - -
15/10:00pm 24.0 SE 17 19 1014.8 - 0.0 - - - - - - -
15/09:30pm 23.9 SE 18 20 1014.7 - 0.0 - - - - - - -
15/09:00pm 23.9 SE 17 20 1014.6 R 0.0 Distant precip. Partly cloudy 30 2 - - -
15/08:30pm 23.9 SE 18 20 1014.4 - 0.0 - - - - - - -
15/08:00pm 23.9 SE 17 20 1014.2 - 0.0 - - - - - - -
15/07:30pm 23.9 SE 17 19 1013.9 - 0.0 - - - - - - -
15/07:00pm 24.1 SE 17 21 1013.5 - 0.0 - - - - - - -
15/06:30pm 24.2 SE 17 20 1013.1 - 0.0 - - - - - - -
15/06:00pm 24.2 SE 17 20 1012.9 F 0.0 Distant precip. Partly cloudy 30 2 1.0 8 E
15/05:30pm 24.4 SE 17 20 1012.6 - 0.0 - - - - - - -
15/05:00pm 24.6 SE 16 18 1012.6 - 0.0 - - - - - - -
15/04:30pm 25.0 SE 15 17 1012.4 - 0.0 - - - - - - -
15/04:00pm 25.8 SE 15 18 1012.5 - 0.0 - - - - - - -
15/03:30pm 25.8 SE 15 18 1012.5 - 0.0 - - - - - - -
15/03:00pm 25.8 SE 16 17 1012.5 R 0.0 Distant precip. Partly cloudy 30 2 1.0 8 SE
15/02:30pm 26.2 SE 16 18 1012.7 - 0.0 - - - - - - -
15/02:00pm 26.4 SE 16 19 1012.7 - 0.0 - - - - - - -
15/01:30pm 26.7 SE 16 18 1012.9 - 0.0 - - - - - - -
15/01:00pm 26.4 SE 16 18 1013.1 - 0.0 - - - - - - -
15/12:30pm 26.7 SE 16 19 1013.3 - 0.0 - - - - - - -
15/12:00pm 26.4 SE 17 19 1013.6 F 0.0 Fine Partly cloudy 30 2 1.0 9 E
15/11:30am 26.3 SE 16 18 1013.8 - 0.0 - - - - - - -
15/11:00am 26.4 SE 16 19 1014.4 - 0.0 - - - - - - -
15/10:30am 26.2 SE 15 19 1014.7 - 0.0 - - - - - - -
15/10:00am 26.1 SE 15 17 1015.0 - 0.0 - - - - - - -
15/09:30am 25.8 SE 16 19 1015.1 - 0.0 - - - - - - -
15/09:00am 25.5 SE 16 19 1015.2 F 2.6 Fine Mostly clear 30 2 1.0 9 E
15/08:30am 25.2 SE 17 20 1015.0 - 2.6 - - - - - - -
15/08:00am 25.0 SE 17 19 1014.8 - 2.6 - - - - - - -
15/07:30am 24.5 ESE 18 20 1014.6 - 2.6 - - - - - - -
15/07:00am 24.0 ESE 17 20 1014.2 - 2.6 - - - - - - -
15/06:30am 23.7 ESE 18 22 1013.9 - 2.6 - - - - - - -
15/06:00am 23.4 ESE 19 22 1013.7 F 2.6 Distant precip. Mostly clear 30 2 1.0 9 E
15/05:30am 23.4 ESE 19 22 1013.6 - 2.6 - - - - - - -
15/05:00am 23.3 ESE 19 21 1013.2 - 2.6 - - - - - - -
15/04:30am 23.3 ESE 18 20 1013.3 - 2.6 - - - - - - -
15/04:00am 23.4 ESE 19 21 1013.3 - 2.6 - - - - - - -
15/03:30am 23.4 ESE 17 21 1013.1 - 2.6 - - - - - - -
15/03:00am 23.3 ESE 18 21 1013.3 - 2.6 - - - - - - -
15/02:30am 23.3 ESE 18 21 1013.3 - 2.6 - - - - - - -
15/02:00am 23.3 ESE 19 21 1013.6 - 2.6 - - - - - - -
15/01:30am 22.2 SSE 14 21 1014.0 - 2.4 - - - - - - -
15/01:00am 23.1 SSE 14 17 1014.2 - 0.2 - - - - - - -
15/12:30am 23.2 SE 16 19 1014.3 - 0.2 - - - - - - -
15/12:00am 23.9 SE 17 20 1014.7 - 0.2 - - - - - - -
 
Date/Time
EST
Temp

°C
Wind Pressure Rain
since 9am
mm
Weather Cloud Vis
km
Sea
Height
m
Swell
Dir
 
Speed
knots
Gust
knots
hPa Trend Height
m
Period
s
Dir
14/11:30pm 23.7 SE 17 20 1014.8 - 0.2 - - - - - - -
14/11:00pm 23.7 SE 18 21 1015.1 - 0.2 - - - - - - -
14/10:30pm 23.6 SE 18 21 1015.2 - 0.2 - - - - - - -
14/10:00pm 23.6 SE 17 20 1015.1 - 0.2 - - - - - - -
14/09:30pm 23.7 SE 17 20 1015.0 - 0.0 - - - - - - -
14/09:00pm 23.7 SE 18 21 1014.9 F 0.0 Distant precip. Mostly clear 30 2 - - -
14/08:30pm 23.9 SE 19 22 1014.9 - 0.0 - - - - - - -
14/08:00pm 23.9 ESE 18 21 1014.9 - 0.0 - - - - - - -
14/07:30pm 23.9 SE 17 20 1014.5 - 0.0 - - - - - - -
14/07:00pm 23.9 SE 18 21 1014.3 - 0.0 - - - - - - -
14/06:30pm 24.1 SE 18 20 1014.0 - 0.0 - - - - - - -
14/06:00pm 24.0 SE 18 22 1013.7 F 0.0 Distant precip. Mostly clear 30 2 1.5 8 SE

Other Formats:

Comma delimited format used in spreadsheet applications
http://www.bom.gov.au/fwo/IDQ60701/IDQ60701.94299.axf

JavaScript Object Notation format (JSON) in row-major order
http://www.bom.gov.au/fwo/IDQ60701/IDQ60701.94299.json